Home > Weather > Dundee > Past weeks

Flag for United Kingdom Weather for the Past 2 Weeks in Dundee, Scotland, United Kingdom

Now
54 °F

Partly cloudy.


Feels Like: 49 °F
Forecast: 41 / 54 °F
Wind: 14 mph from Southwest

Location: Leuchars

Current Time: May 2, 2016 at 12:43:58 AM

Latest Report: May 1, 2016 at 11:50 PM


Visibility: N/A

Pressure: 29.86 "Hg

Humidity: 88%

Dew Point: 50 °F

Location of DundeeLocation

Historic Weather in Dundee — Graph

°F

Dundee Temperature Yesterday

Maximum temperature yesterday: 59 °F (at 2:50 PM)
Minimum temperature yesterday: 39 °F (at 12:50 AM)
Average temperature yesterday: 50 °F

High & Low Weather Summary for the Past Weeks

 TemperatureHumidityPressure
High59 °F (May 1, 2:50 PM)100% (Apr 20, 11:50 PM)30.45 "Hg (Apr 20, 11:50 PM)
Low30 °F (Apr 17, 1:50 AM)40% (Apr 27, 1:50 PM)29.53 "Hg (Apr 29, 1:50 AM)
Average43 °F72%30.03 "Hg
* Reported Apr 16 10:50 PM — May 1 10:50 PM, Dundee, Weather by CustomWeather, © 2016

Note: Actual official high and low records may vary slightly from our data, if they occured in-between our weather recording intervals... More about our weather records

Advertising

Dundee Weather History for the Previous 24 Hours

Scroll right to see more
 ConditionsComfort  
Time TempWeatherWind HumidityBarometerVisibility
10:50 PM
Sun, May 1
54 °FPassing clouds.17 mph88%29.86 "HgN/A
9:50 PM55 °FPartly sunny.17 mph82%29.89 "HgN/A
8:50 PM54 °FPartly sunny.3 mph77%29.92 "HgN/A
7:50 PM54 °FPartly sunny.7 mph72%29.95 "HgN/A
6:50 PM54 °FSprinkles. Partly sunny.17 mph67%29.95 "HgN/A
5:50 PM55 °FLight rain. Partly sunny.17 mph59%29.98 "HgN/A
4:50 PM55 °FSunny.21 mph59%29.98 "Hg10 mi
3:50 PM57 °FPartly sunny.20 mph59%29.98 "HgN/A
2:50 PM59 °FBroken clouds.15 mph68%29.98 "HgN/A
1:50 PM55 °FBroken clouds.17 mph77%29.98 "HgN/A
12:50 PM54 °FOvercast.20 mph77%29.98 "HgN/A
11:50 AM54 °FBroken clouds.21 mph77%29.98 "HgN/A
10:50 AM50 °FPartly sunny.15 mph82%29.98 "HgN/A
9:50 AM50 °FPartly sunny.17 mph82%29.98 "HgN/A
8:50 AM46 °FScattered clouds.17 mph87%30.01 "Hg6 mi
7:50 AM46 °FSunny.15 mph87%30.01 "Hg10 mi
6:50 AM46 °FLight rain. Partly sunny.15 mph82%30.01 "HgN/A
5:50 AM46 °FLight rain. Overcast.17 mph76%30.04 "HgN/A
4:50 AM45 °FLight rain. Passing clouds.13 mph81%30.04 "HgN/A
3:50 AM43 °FPassing clouds.6 mph87%30.07 "HgN/A
2:50 AM41 °FPartly cloudy.8 mph81%30.09 "HgN/A
1:50 AM43 °FPartly cloudy.5 mph76%30.09 "HgN/A
12:50 AM39 °FPassing clouds.7 mph81%30.12 "HgN/A
Weather by CustomWeather, © 2016

See weather overviewHow to use our weather pages